UVA9237 MYBS-MYGF

Flight info

Callsign UVA9237
Flight time 0h 28m
Altitude 5000
Route ZFP
Aircraft DC3/M-SDF/S

Departure

Time 2026-05-05 03:19
Airport South Bimini Airport (MYBS)

Arrival

Time 2026-05-05 03:48
Airport Grand Bahama International Airport (MYGF)
Time Latitude Longitude Altitude Speed Heading
2026-05-05 03:07 25.70123 -79.27221 21 ft 0 kts 154°
2026-05-05 03:10 25.70122 -79.27220 21 ft 1 kts 154°
2026-05-05 03:10 25.70103 -79.27210 18 ft 5 kts 153°
2026-05-05 03:11 25.70085 -79.27172 18 ft 7 kts 90°
2026-05-05 03:11 25.70085 -79.27108 18 ft 9 kts 89°
2026-05-05 03:11 25.70072 -79.27037 18 ft 11 kts 157°
2026-05-05 03:11 25.69997 -79.27005 16 ft 13 kts 106°
2026-05-05 03:12 25.69995 -79.26907 17 ft 13 kts 89°
2026-05-05 03:12 25.69997 -79.26807 17 ft 13 kts 89°
2026-05-05 03:12 25.69998 -79.26701 16 ft 14 kts 89°
2026-05-05 03:12 25.69999 -79.26586 15 ft 15 kts 90°
2026-05-05 03:13 25.69999 -79.26472 16 ft 14 kts 90°
2026-05-05 03:13 25.69999 -79.26365 17 ft 14 kts 91°
2026-05-05 03:13 25.69998 -79.26260 18 ft 14 kts 90°
2026-05-05 03:13 25.69998 -79.26152 18 ft 14 kts 89°
2026-05-05 03:14 25.70000 -79.26044 18 ft 14 kts 88°
2026-05-05 03:14 25.70003 -79.25939 19 ft 13 kts 89°
2026-05-05 03:14 25.70003 -79.25840 20 ft 13 kts 93°
2026-05-05 03:14 25.69983 -79.25744 19 ft 13 kts 115°
2026-05-05 03:15 25.69992 -79.25716 19 ft 1 kts 309°
2026-05-05 03:15 25.69996 -79.25731 19 ft 0 kts 270°
2026-05-05 03:18 25.69997 -79.25811 20 ft 33 kts 271°
2026-05-05 03:18 25.70026 -79.26228 18 ft 72 kts 263°
2026-05-05 03:18 25.70000 -79.26870 31 ft 93 kts 271°
2026-05-05 03:19 25.70053 -79.28606 289 ft 124 kts 288°
2026-05-05 03:19 25.70423 -79.29440 535 ft 121 kts 319°
2026-05-05 03:19 25.71122 -79.29975 613 ft 129 kts 348°
2026-05-05 03:20 25.72023 -79.30203 718 ft 136 kts 358°
2026-05-05 03:20 25.72983 -79.30199 820 ft 139 kts
2026-05-05 03:20 25.73939 -79.30083 966 ft 140 kts 16°
2026-05-05 03:20 25.74869 -79.29789 1149 ft 139 kts 26°
2026-05-05 03:21 25.75759 -79.29359 1338 ft 139 kts 30°
2026-05-05 03:21 25.76624 -79.28889 1526 ft 140 kts 32°
2026-05-05 03:21 25.77478 -79.28367 1747 ft 140 kts 34°
2026-05-05 03:21 25.78340 -79.27846 1944 ft 140 kts 33°
2026-05-05 03:22 25.79197 -79.27339 2172 ft 138 kts 33°
2026-05-05 03:22 25.80042 -79.26855 2390 ft 137 kts 32°
2026-05-05 03:22 25.80886 -79.26366 2621 ft 136 kts 32°
2026-05-05 03:22 25.81723 -79.25876 2853 ft 136 kts 32°
2026-05-05 03:23 25.82549 -79.25387 3056 ft 135 kts 33°
2026-05-05 03:23 25.83380 -79.24883 3261 ft 136 kts 33°
2026-05-05 03:23 25.84206 -79.24369 3446 ft 136 kts 32°
2026-05-05 03:23 25.85030 -79.23845 3619 ft 136 kts 33°
2026-05-05 03:24 25.85844 -79.23320 3800 ft 137 kts 33°
2026-05-05 03:24 25.86669 -79.22774 3962 ft 138 kts 34°
2026-05-05 03:24 25.87491 -79.22216 4144 ft 138 kts 34°
2026-05-05 03:24 25.88302 -79.21657 4325 ft 139 kts 34°
2026-05-05 03:25 25.89122 -79.21080 4508 ft 139 kts 34°
2026-05-05 03:25 25.89936 -79.20498 4689 ft 139 kts 34°
2026-05-05 03:25 25.90744 -79.19925 4853 ft 140 kts 33°
2026-05-05 03:25 25.91577 -79.19338 4982 ft 143 kts 33°
2026-05-05 03:26 25.92432 -79.18737 5062 ft 149 kts 33°
2026-05-05 03:26 25.93335 -79.18112 5104 ft 156 kts 32°
2026-05-05 03:26 25.94289 -79.17459 5100 ft 165 kts 32°
2026-05-05 03:26 25.95288 -79.16778 5079 ft 171 kts 32°
2026-05-05 03:27 25.96305 -79.16093 5078 ft 174 kts 32°
2026-05-05 03:27 25.97359 -79.15394 5080 ft 176 kts 31°
2026-05-05 03:27 25.98410 -79.14706 5104 ft 178 kts 31°
2026-05-05 03:27 25.99487 -79.14015 5109 ft 179 kts 31°
2026-05-05 03:28 26.00558 -79.13301 5106 ft 179 kts 33°
2026-05-05 03:28 26.01608 -79.12543 5104 ft 180 kts 35°
2026-05-05 03:28 26.02644 -79.11742 5120 ft 181 kts 37°
2026-05-05 03:28 26.03654 -79.10928 5117 ft 181 kts 37°
2026-05-05 03:29 26.04681 -79.10097 5114 ft 182 kts 37°
2026-05-05 03:29 26.05691 -79.09274 5099 ft 182 kts 38°
2026-05-05 03:29 26.06714 -79.08439 5097 ft 182 kts 37°
2026-05-05 03:29 26.07749 -79.07610 5098 ft 182 kts 37°
2026-05-05 03:30 26.08789 -79.06797 5082 ft 183 kts 36°
2026-05-05 03:30 26.09828 -79.06005 5070 ft 183 kts 35°
2026-05-05 03:30 26.10893 -79.05210 5054 ft 183 kts 34°
2026-05-05 03:30 26.11966 -79.04435 5044 ft 184 kts 34°
2026-05-05 03:31 26.13046 -79.03679 5036 ft 183 kts 33°
2026-05-05 03:31 26.14121 -79.02947 5016 ft 183 kts 33°
2026-05-05 03:31 26.15222 -79.02223 5018 ft 184 kts 31°
2026-05-05 03:31 26.16334 -79.01514 5050 ft 184 kts 31°
2026-05-05 03:32 26.17457 -79.00819 5111 ft 184 kts 30°
2026-05-05 03:32 26.18571 -79.00152 5102 ft 184 kts 29°
2026-05-05 03:32 26.19715 -78.99497 5079 ft 185 kts 28°
2026-05-05 03:32 26.20870 -78.98863 5061 ft 185 kts 28°
2026-05-05 03:33 26.22033 -78.98255 5047 ft 185 kts 26°
2026-05-05 03:33 26.23205 -78.97670 5022 ft 185 kts 26°
2026-05-05 03:33 26.24389 -78.97106 5004 ft 185 kts 25°
2026-05-05 03:33 26.25587 -78.96564 4979 ft 185 kts 24°
2026-05-05 03:34 26.26795 -78.96048 4955 ft 185 kts 22°
2026-05-05 03:34 26.28002 -78.95565 4945 ft 185 kts 21°
2026-05-05 03:34 26.29227 -78.95102 4928 ft 186 kts 21°
2026-05-05 03:34 26.30046 -78.94812 4926 ft 186 kts 20°
2026-05-05 03:35 26.31677 -78.94203 4909 ft 186 kts 24°
2026-05-05 03:35 26.32477 -78.93813 4892 ft 185 kts 29°
2026-05-05 03:35 26.33570 -78.93098 4863 ft 183 kts 35°
2026-05-05 03:35 26.34641 -78.92312 4836 ft 183 kts 37°
2026-05-05 03:36 26.35691 -78.91532 4806 ft 183 kts 37°
2026-05-05 03:36 26.36762 -78.90747 4774 ft 183 kts 36°
2026-05-05 03:36 26.37837 -78.89973 4759 ft 184 kts 36°
2026-05-05 03:36 26.38905 -78.89221 4737 ft 184 kts 35°
2026-05-05 03:37 26.39987 -78.88462 4711 ft 179 kts 36°
2026-05-05 03:37 26.41001 -78.87729 4590 ft 169 kts 37°
2026-05-05 03:37 26.41988 -78.87069 4467 ft 164 kts 34°
2026-05-05 03:37 26.43001 -78.86481 4237 ft 164 kts 30°
2026-05-05 03:38 26.44046 -78.85948 4011 ft 165 kts 29°
2026-05-05 03:38 26.45105 -78.85480 3787 ft 165 kts 26°
2026-05-05 03:38 26.46206 -78.85077 3557 ft 167 kts 23°
2026-05-05 03:38 26.47334 -78.84742 3314 ft 168 kts 19°
2026-05-05 03:39 26.48485 -78.84482 3077 ft 167 kts 15°
2026-05-05 03:39 26.49599 -78.84209 2851 ft 163 kts 24°
2026-05-05 03:39 26.50590 -78.83638 2620 ft 157 kts 43°
2026-05-05 03:39 26.51373 -78.82818 2404 ft 153 kts 50°
2026-05-05 03:40 26.52077 -78.81953 2168 ft 151 kts 53°
2026-05-05 03:40 26.52785 -78.81090 1984 ft 150 kts 52°
2026-05-05 03:40 26.53487 -78.80232 1942 ft 147 kts 50°
2026-05-05 03:40 26.54160 -78.79419 1958 ft 142 kts 50°
2026-05-05 03:41 26.54840 -78.78634 2012 ft 140 kts 49°
2026-05-05 03:41 26.55527 -78.77861 2016 ft 140 kts 49°
2026-05-05 03:41 26.56220 -78.77101 2012 ft 140 kts 47°
2026-05-05 03:41 26.57062 -78.76556 2057 ft 146 kts 16°
2026-05-05 03:42 26.58058 -78.76866 2023 ft 165 kts 329°
2026-05-05 03:42 26.58655 -78.77996 1929 ft 175 kts 286°
2026-05-05 03:42 26.58588 -78.79352 1718 ft 176 kts 252°
2026-05-05 03:42 26.57989 -78.80507 1503 ft 168 kts 225°
2026-05-05 03:43 26.57163 -78.81151 1363 ft 126 kts 185°
2026-05-05 03:43 26.56425 -78.81027 1244 ft 99 kts 144°
2026-05-05 03:43 26.55930 -78.80568 1078 ft 93 kts 130°
2026-05-05 03:43 26.55455 -78.80124 1010 ft 86 kts 131°
2026-05-05 03:44 26.55028 -78.79682 933 ft 74 kts 119°
2026-05-05 03:44 26.54902 -78.79171 923 ft 70 kts 89°
2026-05-05 03:44 26.54954 -78.78639 966 ft 70 kts 80°
2026-05-05 03:44 26.55034 -78.78098 1026 ft 70 kts 78°
2026-05-05 03:45 26.55109 -78.77560 1122 ft 69 kts 89°
2026-05-05 03:45 26.54882 -78.77054 1146 ft 80 kts 115°
2026-05-05 03:45 26.54533 -78.76542 1148 ft 84 kts 117°
2026-05-05 03:45 26.54180 -78.76018 1147 ft 85 kts 116°
2026-05-05 03:46 26.53867 -78.75480 1141 ft 79 kts 105°
2026-05-05 03:46 26.53690 -78.74903 1078 ft 78 kts 95°
2026-05-05 03:46 26.53648 -78.74287 987 ft 86 kts 84°
2026-05-05 03:46 26.53760 -78.73657 902 ft 81 kts 68°
2026-05-05 03:47 26.54055 -78.73140 695 ft 77 kts 58°
2026-05-05 03:47 26.54339 -78.72670 563 ft 69 kts 60°
2026-05-05 03:47 26.54580 -78.72182 425 ft 74 kts 59°
2026-05-05 03:47 26.54823 -78.71668 233 ft 78 kts 62°
2026-05-05 03:48 26.55084 -78.71145 63 ft 76 kts 64°
2026-05-05 03:48 26.55317 -78.70676 23 ft 61 kts 62°
2026-05-05 03:48 26.55469 -78.70358 19 ft 22 kts 61°
2026-05-05 03:48 26.55521 -78.70256 18 ft 13 kts 60°
2026-05-05 03:49 26.55565 -78.70168 17 ft 14 kts 60°
2026-05-05 03:49 26.55617 -78.70062 16 ft 17 kts 60°
2026-05-05 03:49 26.55680 -78.69938 16 ft 20 kts 61°
2026-05-05 03:49 26.55750 -78.69795 15 ft 22 kts 63°
2026-05-05 03:50 26.55822 -78.69645 16 ft 21 kts 60°
2026-05-05 03:50 26.55875 -78.69513 16 ft 16 kts 84°
2026-05-05 03:50 26.55816 -78.69447 16 ft 14 kts 190°
2026-05-05 03:50 26.55728 -78.69509 17 ft 17 kts 220°
2026-05-05 03:51 26.55630 -78.69604 16 ft 21 kts 220°
2026-05-05 03:51 26.55514 -78.69715 17 ft 23 kts 220°
2026-05-05 03:51 26.55386 -78.69840 17 ft 25 kts 221°
2026-05-05 03:51 26.55247 -78.69975 17 ft 27 kts 221°
2026-05-05 03:52 26.55101 -78.70119 17 ft 28 kts 221°
2026-05-05 03:52 26.54967 -78.70248 17 ft 19 kts 214°
2026-05-05 03:52 26.54888 -78.70213 17 ft 13 kts 125°
2026-05-05 03:52 26.54813 -78.70179 17 ft 11 kts 179°
2026-05-05 03:53 26.54778 -78.70190 17 ft 2 kts 345°
2026-05-05 03:53 26.54780 -78.70190 17 ft 0 kts